Terug naar catalogus

STARLINK-36554

ActiefCommunicatieVLEO
NORAD 67502·PAYLOAD·🇺🇸 United States

Gelanceerd Jan 18, 2026 vanaf Cape Canaveral Space Force Station

Loading…

Volgende Passages (komende 24 uur)

TLE

VersSource: CelesTrak SupGP

Epoch: Sep 14, 2026, 21:46 UTC

1 67502C 26012K   26257.90743056 -.00027245  00000+0 -98676-3 0  2574
2 67502  43.0036 325.7033 0001643 269.3839  11.3484 15.27593867    10

Volg STARLINK-36554 in realtime met AllMySat

Download on the App Store